Weather History for West Plains, MO

Change the Weather History Date:

Wednesday, February 20, 2013

  Actual Average Record
Temperature  
Mean Temperature 28 °F 39 °F  
Max Temperature 33 °F 51 °F 75 °F (2014)
Min Temperature 23 °F 28 °F 8 °F (1958)
Degree Days  
Heating Degree Days 37 26  
Month to date heating degree days 513 564  
Since 1 July heating degree days 3059 3268  
Cooling Degree Days 0 0  
Month to date cooling degree days 0 0  
Year to date cooling degree days 0 0  
Moisture  
Dew Point 8 °F    
Average Humidity 42    
Maximum Humidity 50    
Minimum Humidity 33    
Precipitation  
Precipitation 0.00 in 0.10 in 1.22 in (1951)
Month to date precipitation 1.88 2.01  
Year to date precipitation 5.26 4.73  
Sea Level Pressure  
Sea Level Pressure 30.28 in    
Wind  
Wind Speed 6 mph (ENE)    
Max Wind Speed 9 mph    
Max Gust Speed 15 mph    
Visibility 10 miles    
Events      
T = Trace of Precipitation, MM = Missing Value Source: NWS Daily Summary

Daily Weather History Graph

Daily Weather History Graph

Search for Another Location

Airport:

Trip Planner

Search our weather history database for the weather conditions in past years. The results will help you decide how hot, cold, wet, or windy it might be!

Date:

Astronomy

Feb. 20, 2013 Rise Set
Actual Time 6:49 AM CST 5:53 PM CST
Civil Twilight 6:23 AM CST 6:19 PM CST
Nautical Twilight 5:53 AM CST 6:49 PM CST
Astronomical Twilight 5:23 AM CST 7:19 PM CST
Moon 1:19 PM CST (2/20) 3:05 AM CST (2/20)
Length of Visible Light 11h 56m
Length of Day
11h 03m
Waxing Gibbous, 76% of the Moon is Illuminated
Feb 20
Waxing Gibbous
Feb 25
Full
Mar 4
Last Quarter
Mar 11
New
Mar 19
First Quarter

Hourly Weather History & Observations

Time (CST) Temp. Windchill Dew Point Humidity Pressure Visibility Wind Dir Wind Speed Gust Speed Precip Events Conditions
12:53 AM 26.1 °F 20.5 °F 8.1 °F 47% 30.31 in 10.0 mi North 4.6 mph - N/A   Clear
1:53 AM 25.0 °F 17.1 °F 8.1 °F 49% 30.30 in 10.0 mi North 6.9 mph - N/A   Clear
2:53 AM 24.1 °F 19.7 °F 7.0 °F 48% 30.32 in 10.0 mi North 3.5 mph - N/A   Clear
3:53 AM 24.1 °F 16.0 °F 8.1 °F 51% 30.30 in 10.0 mi North 6.9 mph - N/A   Clear
4:53 AM 23.0 °F 15.8 °F 7.0 °F 50% 30.32 in 10.0 mi NNE 5.8 mph - N/A   Clear
5:53 AM 23.0 °F 14.7 °F 7.0 °F 50% 30.32 in 10.0 mi NNE 6.9 mph - N/A   Clear
6:53 AM 23.0 °F 13.9 °F 6.1 °F 48% 30.35 in 10.0 mi NNE 8.1 mph - N/A   Clear
7:53 AM 23.0 °F 15.8 °F 6.1 °F 48% 30.36 in 10.0 mi NNE 5.8 mph - N/A   Clear
9:53 AM 25.0 °F 19.3 °F 5.0 °F 43% 30.36 in 10.0 mi NE 4.6 mph - N/A   Mostly Cloudy
10:53 AM 26.1 °F 17.6 °F 6.1 °F 43% 30.35 in 10.0 mi NE 8.1 mph - N/A   Overcast
11:53 AM 27.0 °F 19.5 °F 8.1 °F 45% 30.35 in 10.0 mi NE 6.9 mph - N/A   Overcast
12:53 PM 28.0 °F 20.8 °F 7.0 °F 41% 30.32 in 10.0 mi NE 6.9 mph - N/A   Overcast
1:53 PM 30.9 °F 23.5 °F 8.1 °F 38% 30.27 in 10.0 mi ENE 8.1 mph - N/A   Mostly Cloudy
2:53 PM 32.0 °F 24.8 °F 6.1 °F 34% 30.24 in 10.0 mi ENE 8.1 mph - N/A   Overcast
3:53 PM 32.0 °F 27.5 °F 8.1 °F 37% 30.25 in 10.0 mi East 4.6 mph - N/A   Overcast
4:53 PM 32.0 °F 27.5 °F 8.1 °F 37% 30.24 in 10.0 mi East 4.6 mph - N/A   Overcast
5:53 PM 32.0 °F 26.4 °F 9.0 °F 38% 30.24 in 10.0 mi East 5.8 mph - N/A   Overcast
6:53 PM 30.9 °F 23.5 °F 7.0 °F 37% 30.24 in 10.0 mi ESE 8.1 mph - N/A   Overcast
7:53 PM 30.9 °F 23.5 °F 9.0 °F 40% 30.22 in 10.0 mi East 8.1 mph - N/A   Overcast
8:53 PM 30.0 °F 21.7 °F 9.0 °F 41% 30.23 in 10.0 mi East 9.2 mph - N/A   Overcast
9:53 PM 30.0 °F 24.1 °F 9.0 °F 41% 30.22 in 10.0 mi East 5.8 mph - N/A   Overcast
10:53 PM 28.9 °F 21.9 °F 12.9 °F 51% 30.22 in 10.0 mi ESE 6.9 mph - N/A   Overcast
11:53 PM 28.9 °F 19.8 °F 12.9 °F 51% 30.21 in 10.0 mi East 10.4 mph - N/A   Overcast